Chippewa, MI

2:39 PM EDT on April 23, 2018 (GMT -0400)
Chippewa County International

Weather History for KCIU - April, 2014

Change the Weather History Date:

Monday, April 14, 2014

  Actual Average Record
Temperature  
Mean Temperature 28 °F -  
Max Temperature 35 °F 46 °F 69 °F (2003)
Min Temperature 21 °F 26 °F 4 °F (1992)
Degree Days  
Heating Degree Days 37    
Moisture  
Dew Point 28 °F    
Average Humidity 96    
Maximum Humidity 100    
Minimum Humidity 86    
Precipitation  
Precipitation 0.65 in - - ()
Sea Level Pressure  
Sea Level Pressure 29.63 in    
Wind  
Wind Speed 16 mph (NW)    
Max Wind Speed 29 mph    
Max Gust Speed 39 mph    
Visibility 4 miles    
Events      
Averages and records for this station are not official NWS values.
T = Trace of Precipitation, MM = Missing Value Source: NWS Daily Summary

Daily Weather History Graph

Daily Weather History Graph

Search for Another Location

Airport or City:

Astronomy

Apr. 14, 2014 Rise Set
Actual Time 6:53 AM EDT 8:24 PM EDT
Civil Twilight 6:21 AM EDT 8:55 PM EDT
Nautical Twilight 5:43 AM EDT 9:33 PM EDT
Astronomical Twilight 5:02 AM EDT 10:14 PM EDT
Moon 8:01 PM EDT (4/14) 6:27 AM EDT (4/14)
Length of Visible Light 14h 33m
Length of Day
13h 30m
Full, 100% of the Moon is Illuminated
Apr 14
Full
Apr 15
Full
Apr 22
Last Quarter
Apr 29
New
May 6
First Quarter

Hourly Weather History & Observations

Time (EDT) Temp. Windchill Dew Point Humidity Pressure Visibility Wind Dir Wind Speed Gust Speed Precip Events Conditions
12:15 AM 33.8 °F 23.9 °F 33.8 °F 100% 29.67 in 3.0 mi NNW 15.0 mph 19.6 mph N/A   Overcast
12:35 AM 33.8 °F 23.9 °F 33.8 °F 100% 29.67 in 2.5 mi NNW 15.0 mph - N/A   Overcast
12:55 AM 33.8 °F 24.3 °F 33.8 °F 100% 29.66 in 2.5 mi NNW 13.8 mph - 0.01 in   Overcast
1:15 AM 33.8 °F 24.8 °F 33.8 °F 100% 29.65 in 3.0 mi NNW 12.7 mph - 0.03 in   Overcast
1:35 AM 33.8 °F 26.4 °F 33.8 °F 100% 29.65 in 5.0 mi NNW 9.2 mph - 0.05 in   Overcast
1:55 AM 33.8 °F 25.8 °F 33.8 °F 100% 29.63 in 5.0 mi NNW 10.4 mph - 0.07 in   Overcast
2:15 AM 33.8 °F 25.8 °F 33.8 °F 100% 29.61 in 6.0 mi NNW 10.4 mph - 0.02 in   Overcast
2:35 AM 33.8 °F 26.4 °F 33.8 °F 100% 29.60 in 5.0 mi North 9.2 mph - 0.05 in   Overcast
2:55 AM 33.8 °F 27.0 °F 33.8 °F 100% 29.58 in 7.0 mi NNW 8.1 mph - 0.06 in   Overcast
3:15 AM 33.8 °F 25.8 °F 33.8 °F 100% 29.55 in 6.0 mi NNW 10.4 mph - 0.02 in   Overcast
3:35 AM 33.8 °F 25.8 °F 33.8 °F 100% 29.54 in 4.0 mi NNW 10.4 mph - 0.03 in   Overcast
3:55 AM 33.8 °F 24.8 °F 33.8 °F 100% 29.52 in 5.0 mi NNW 12.7 mph - 0.05 in   Overcast
4:15 AM 33.8 °F 26.4 °F 33.8 °F 100% 29.51 in 5.0 mi NNW 9.2 mph - 0.03 in   Overcast
4:35 AM 33.8 °F 25.3 °F 33.8 °F 100% 29.51 in 5.0 mi NW 11.5 mph - 0.08 in   Overcast
4:55 AM 33.8 °F 23.9 °F 33.8 °F 100% 29.48 in 3.0 mi NNW 15.0 mph - 0.14 in   Overcast
5:15 AM 35.6 °F 26.6 °F 35.6 °F 100% 29.47 in 6.0 mi NNW 13.8 mph - 0.04 in   Overcast
5:35 AM 35.6 °F 26.6 °F 35.6 °F 100% 29.48 in 5.0 mi NNW 13.8 mph - 0.07 in   Overcast
5:55 AM 35.6 °F 26.6 °F 35.6 °F 100% 29.46 in 4.0 mi NNW 13.8 mph 20.7 mph 0.11 in   Overcast
6:15 AM 35.6 °F 25.9 °F 35.6 °F 100% 29.44 in 6.0 mi NNW 16.1 mph 24.2 mph 0.02 in   Overcast
6:35 AM 35.6 °F 26.2 °F 35.6 °F 100% 29.43 in 5.0 mi NNW 15.0 mph - 0.05 in   Overcast
6:55 AM 35.6 °F 26.2 °F 35.6 °F 100% 29.43 in 5.0 mi NNW 15.0 mph 21.9 mph 0.08 in   Overcast
7:15 AM 33.8 °F 23.9 °F 33.8 °F 100% 29.43 in 5.0 mi NNW 15.0 mph 21.9 mph 0.03 in   Overcast
7:35 AM 33.8 °F 23.9 °F 33.8 °F 100% 29.42 in 3.0 mi NNW 15.0 mph 24.2 mph 0.06 in   Overcast
7:55 AM 33.8 °F 22.8 °F 33.8 °F 100% 29.42 in 3.0 mi NNW 18.4 mph 24.2 mph 0.07 in   Overcast
8:15 AM 33.8 °F 21.9 °F 32.0 °F 93% 29.41 in 1.8 mi NNW 21.9 mph 28.8 mph 0.01 in   Overcast
8:35 AM 33.8 °F 22.2 °F 32.0 °F 93% 29.42 in 1.8 mi NNW 20.7 mph 28.8 mph 0.02 in   Overcast
8:55 AM 33.8 °F 22.2 °F 32.0 °F 93% 29.42 in 2.0 mi NNW 20.7 mph 28.8 mph 0.02 in   Overcast
9:15 AM 33.8 °F 22.2 °F 32.0 °F 93% 29.42 in 1.2 mi NNW 20.7 mph 28.8 mph N/A   Overcast
9:35 AM 33.8 °F 22.8 °F 32.0 °F 93% 29.43 in 1.0 mi NNW 18.4 mph 31.1 mph 0.01 in   Overcast
9:55 AM 33.8 °F 22.2 °F 33.8 °F 100% 29.44 in 0.8 mi NNW 20.7 mph 29.9 mph 0.01 in   Overcast
10:15 AM 32.0 °F 19.5 °F 32.0 °F 100% 29.46 in 0.8 mi NNW 21.9 mph 29.9 mph 0.01 in   Overcast
10:35 AM 32.0 °F 18.9 °F 32.0 °F 100% 29.46 in 0.5 mi NNW 24.2 mph 31.1 mph 0.02 in   Overcast
10:55 AM 30.2 °F 16.5 °F 30.2 °F 100% 29.49 in 0.2 mi NNW 24.2 mph 33.4 mph 0.02 in   Overcast
11:15 AM 30.2 °F 16.2 °F 30.2 °F 100% 29.52 in 0.2 mi NNW 25.3 mph 36.8 mph N/A   Overcast
11:35 AM 30.2 °F 16.8 °F 30.2 °F 100% 29.54 in 0.2 mi NW 23.0 mph 31.1 mph N/A   Overcast
11:55 AM 30.2 °F 17.1 °F 30.2 °F 100% 29.56 in 0.2 mi NW 21.9 mph 32.2 mph 0.01 in   Overcast
12:15 PM 30.2 °F 15.7 °F 30.2 °F 100% 29.56 in 0.2 mi NW 27.6 mph 36.8 mph N/A   Overcast
12:35 PM 30.2 °F 16.2 °F 28.4 °F 93% 29.57 in 0.5 mi NW 25.3 mph 39.1 mph N/A   Overcast
12:55 PM 30.2 °F 16.5 °F 28.4 °F 93% 29.61 in 0.5 mi NW 24.2 mph 36.8 mph N/A   Overcast
1:15 PM 30.2 °F 15.4 °F 28.4 °F 93% 29.59 in 1.5 mi NW 28.8 mph 35.7 mph N/A   Overcast
1:35 PM 30.2 °F 16.5 °F 28.4 °F 93% 29.62 in 1.5 mi NW 24.2 mph 35.7 mph N/A   Overcast
1:55 PM 28.4 °F 14.1 °F 26.6 °F 93% 29.61 in 1.5 mi NNW 24.2 mph 35.7 mph N/A   Overcast
2:15 PM 28.4 °F 14.1 °F 26.6 °F 93% 29.62 in 3.0 mi NW 24.2 mph 32.2 mph N/A   Overcast
2:35 PM 28.4 °F 13.8 °F 26.6 °F 93% 29.62 in 4.0 mi NW 25.3 mph 33.4 mph N/A   Overcast
2:55 PM 28.4 °F 14.1 °F 26.6 °F 93% 29.63 in 7.0 mi NW 24.2 mph 34.5 mph N/A   Overcast
3:15 PM 26.6 °F 12.0 °F 24.8 °F 93% 29.66 in 10.0 mi NW 23.0 mph 27.6 mph N/A   Overcast
3:35 PM 26.6 °F 12.0 °F 24.8 °F 93% 29.68 in 10.0 mi WNW 23.0 mph 27.6 mph N/A   Overcast
3:55 PM 26.6 °F 12.0 °F 24.8 °F 93% 29.69 in 10.0 mi NW 23.0 mph 28.8 mph N/A   Overcast
4:15 PM 26.6 °F 12.4 °F 24.8 °F 93% 29.71 in 10.0 mi NW 21.9 mph 29.9 mph N/A   Overcast
4:35 PM 26.6 °F 12.4 °F 23.0 °F 86% 29.71 in 8.0 mi NW 21.9 mph 33.4 mph N/A   Overcast
4:55 PM 24.8 °F 9.3 °F 23.0 °F 93% 29.72 in 8.0 mi NW 24.2 mph 34.5 mph N/A   Overcast
5:15 PM 24.8 °F 10.0 °F 23.0 °F 93% 29.76 in 10.0 mi WNW 21.9 mph 27.6 mph N/A   Overcast
5:35 PM 24.8 °F 10.3 °F 21.2 °F 86% 29.78 in 10.0 mi NW 20.7 mph 29.9 mph N/A   Overcast
5:55 PM 24.8 °F 11.5 °F 21.2 °F 86% 29.79 in 10.0 mi WNW 17.3 mph 24.2 mph N/A   Overcast
6:15 PM 24.8 °F 11.1 °F 21.2 °F 86% 29.79 in 10.0 mi NW 18.4 mph 28.8 mph N/A   Overcast
6:35 PM 24.8 °F 11.5 °F 21.2 °F 86% 29.79 in 3.0 mi NW 17.3 mph 25.3 mph N/A   Overcast
6:55 PM 24.8 °F 12.4 °F 23.0 °F 93% 29.80 in 2.5 mi NW 15.0 mph 23.0 mph N/A   Overcast
7:15 PM 24.8 °F 12.4 °F 23.0 °F 93% 29.80 in 3.0 mi NW 15.0 mph 23.0 mph N/A   Overcast
7:35 PM 24.8 °F 10.0 °F 21.2 °F 86% 29.78 in 9.0 mi NW 21.9 mph - N/A   Overcast
7:55 PM 24.8 °F 11.9 °F 21.2 °F 86% 29.80 in 10.0 mi NW 16.1 mph 23.0 mph N/A   Overcast
8:15 PM 24.8 °F 11.1 °F 21.2 °F 86% 29.81 in 5.0 mi NW 18.4 mph 25.3 mph N/A   Overcast
8:35 PM 23.0 °F 9.6 °F 21.2 °F 93% 29.83 in 3.0 mi NW 16.1 mph 24.2 mph N/A   Overcast
8:55 PM 23.0 °F 9.6 °F 21.2 °F 93% 29.84 in 5.0 mi NW 16.1 mph 20.7 mph N/A   Overcast
9:15 PM 23.0 °F 9.6 °F 23.0 °F 100% 29.85 in 3.0 mi NW 16.1 mph 20.7 mph N/A   Overcast
9:35 PM 23.0 °F 10.6 °F 23.0 °F 100% 29.87 in 2.0 mi NNW 13.8 mph 23.0 mph N/A   Overcast
9:55 PM 23.0 °F 11.7 °F 23.0 °F 100% 29.87 in 1.5 mi NNW 11.5 mph - N/A   Overcast
10:15 PM 23.0 °F 9.6 °F 21.2 °F 93% 29.86 in 1.8 mi NNW 16.1 mph 19.6 mph N/A   Overcast
10:35 PM 21.2 °F 10.1 °F 21.2 °F 100% 29.88 in 2.0 mi NNW 10.4 mph 21.9 mph N/A   Overcast
10:55 PM 21.2 °F 7.3 °F 21.2 °F 100% 29.87 in 2.0 mi NNW 16.1 mph - N/A   Overcast
11:15 PM 21.2 °F 9.5 °F 19.4 °F 93% 29.89 in 2.0 mi North 11.5 mph 20.7 mph N/A   Overcast
11:35 PM 21.2 °F 10.1 °F 19.4 °F 93% 29.88 in 1.5 mi NNW 10.4 mph - N/A   Overcast
11:55 PM 21.2 °F 10.9 °F 21.2 °F 100% 29.89 in 1.5 mi NNW 9.2 mph - N/A   Overcast